QPF
0.02 0.02 0.03 0.01 0.01 0.02 0.03 0.02 0.01 0.01 0.01 0.01 0.01 0.01 0.01 0.01 0.00 0.02 0.06 0.07 0.06 0.04 0.03 0.03 0.03 0.04 0.06 0.07 0.07 0.06 0.07 0.10 0.15 0.19 0.14 0.10 0.10 0.09 0.08 0.08 0.08 0.08 0.08 0.10
0.01 0.01 0.01 0.00 0.01 0.02 0.02 0.01 0.01 0.01 0.01 0.01 0.01 0.01 0.01 0.01 0.01 0.01 0.05 0.05 0.05 0.04 0.03 0.03 0.03 0.05 0.06 0.08 0.06 0.05 0.05 0.06 0.11 0.16 0.17 0.11 0.13 0.12 0.10 0.10 0.09 0.08 0.08 0.08
0.01 0.01 0.01 0.01 0.01 0.01 0.01 0.01 0.01 0.01 0.01 0.01 0.01 0.01 0.01 0.01 0.01 0.01 0.02 0.04 0.04 0.03 0.02 0.02 0.02 0.03 0.05 0.07 0.07 0.04 0.04 0.05 0.07 0.13 0.19 0.14 0.12 0.12 0.11 0.10 0.09 0.07 0.05 0.05
0.01 0.00 0.00 0.01 0.01 0.00 0.00 0.00 0.00 0.01 0.01 0.01 0.01 0.01 0.01 0.01 0.01 0.01 0.01 0.02 0.03 0.03 0.02 0.01 0.01 0.01 0.03 0.06 0.07 0.05 0.05 0.05 0.05 0.09 0.17 0.17 0.13 0.10 0.09 0.09 0.08 0.06 0.05 0.04
0.01 0.01 0.01 0.01 0.00 0.00 0.00 0.00 0.00 0.01 0.01 0.01 0.01 0.01 0.01 0.01 0.02 0.01 0.00 0.01 0.02 0.02 0.01 0.01 0.01 0.01 0.01 0.03 0.05 0.05 0.04 0.05 0.05 0.07 0.12 0.16 0.15 0.11 0.08 0.08 0.07 0.06 0.04 0.04
0.00 0.00 0.00 0.01 0.01 0.00 0.00 0.00 0.00 0.01 0.03 0.02 0.01 0.01 0.01 0.01 0.03 0.02 0.01 0.01 0.01 0.01 0.01 0.01 0.01 0.00 0.01 0.02 0.03 0.04 0.03 0.04 0.04 0.05 0.09 0.12 0.14 0.13 0.10 0.08 0.07 0.06 0.04 0.03
0.00 0.00 0.00 0.00 0.00 0.01 0.01 0.01 0.02 0.03 0.03 0.02 0.02 0.01 0.01 0.01 0.02 0.02 0.02 0.02 0.01 0.01 0.01 0.01 0.01 0.00 0.00 0.01 0.02 0.03 0.03 0.03 0.04 0.05 0.07 0.09 0.11 0.12 0.12 0.11 0.08 0.07 0.05 0.03
0.00 0.00 0.00 0.00 0.00 0.01 0.01 0.01 0.02 0.02 0.02 0.02 0.01 0.01 0.01 0.02 0.02 0.01 0.01 0.01 0.02 0.02 0.01 0.00 0.01 0.01 0.00 0.01 0.01 0.02 0.02 0.02 0.03 0.04 0.08 0.08 0.08 0.09 0.08 0.09 0.08 0.07 0.06 0.04
0.01 0.00 0.00 0.00 0.00 0.00 0.01 0.00 0.01 0.03 0.02 0.02 0.01 0.01 0.01 0.01 0.01 0.01 0.02 0.02 0.03 0.03 0.01 0.01 0.01 0.01 0.01 0.01 0.02 0.03 0.03 0.03 0.03 0.03 0.07 0.08 0.06 0.07 0.06 0.06 0.06 0.05 0.05 0.04
0.01 0.01 0.00 0.00 0.00 0.00 0.00 0.01 0.02 0.02 0.03 0.02 0.01 0.01 0.02 0.02 0.01 0.02 0.02 0.04 0.05 0.05 0.03 0.02 0.01 0.01 0.01 0.02 0.03 0.04 0.04 0.04 0.04 0.05 0.07 0.08 0.05 0.05 0.05 0.05 0.05 0.04 0.03 0.03
0.01 0.01 0.00 0.00 0.00 0.00 0.01 0.01 0.02 0.02 0.02 0.02 0.01 0.01 0.02 0.02 0.02 0.02 0.03 0.05 0.06 0.07 0.05 0.03 0.02 0.01 0.01 0.02 0.04 0.04 0.04 0.04 0.04 0.05 0.07 0.08 0.07 0.05 0.05 0.05 0.05 0.04 0.03 0.02
0.01 0.01 0.01 0.00 0.00 0.00 0.00 0.01 0.01 0.03 0.02 0.02 0.02 0.01 0.01 0.02 0.02 0.03 0.03 0.06 0.09 0.07 0.06 0.05 0.03 0.02 0.01 0.02 0.03 0.04 0.04 0.04 0.04 0.04 0.06 0.08 0.08 0.06 0.05 0.05 0.06 0.04 0.03 0.02
0.02 0.02 0.01 0.01 0.00 0.00 0.00 0.00 0.01 0.02 0.03 0.02 0.02 0.01 0.01 0.01 0.02 0.03 0.04 0.07 0.11 0.10 0.09 0.08 0.06 0.03 0.02 0.02 0.03 0.04 0.05 0.05 0.05 0.05 0.06 0.07 0.08 0.08 0.07 0.07 0.08 0.07 0.05 0.03
0.02 0.02 0.01 0.01 0.01 0.01 0.01 0.01 0.01 0.03 0.03 0.02 0.01 0.01 0.01 0.01 0.01 0.02 0.04 0.06 0.08 0.10 0.10 0.09 0.09 0.07 0.05 0.04 0.04 0.05 0.07 0.08 0.08 0.07 0.07 0.08 0.10 0.11 0.10 0.10 0.10 0.09 0.08 0.06
0.01 0.01 0.00 0.00 0.00 0.01 0.01 0.01 0.01 0.01 0.02 0.02 0.01 0.01 0.01 0.02 0.02 0.03 0.04 0.05 0.06 0.07 0.08 0.09 0.08 0.09 0.07 0.05 0.05 0.05 0.08 0.11 0.10 0.09 0.08 0.08 0.08 0.11 0.12 0.12 0.12 0.10 0.09 0.08
0.01 0.01 0.00 0.00 0.00 0.01 0.01 0.01 0.00 0.00 0.01 0.01 0.01 0.01 0.01 0.01 0.01 0.02 0.02 0.03 0.05 0.06 0.07 0.08 0.08 0.07 0.07 0.06 0.05 0.05 0.06 0.07 0.09 0.10 0.11 0.11 0.10 0.12 0.13 0.14 0.13 0.11 0.09 0.08
0.01 0.01 0.01 0.01 0.00 0.01 0.01 0.01 0.01 0.01 0.01 0.02 0.02 0.01 0.01 0.01 0.01 0.01 0.02 0.03 0.04 0.05 0.06 0.07 0.07 0.07 0.07 0.07 0.06 0.06 0.06 0.05 0.07 0.08 0.09 0.11 0.13 0.12 0.11 0.12 0.11 0.10 0.09 0.08
0.01 0.01 0.01 0.01 0.00 0.01 0.01 0.00 0.01 0.01 0.01 0.01 0.02 0.02 0.02 0.02 0.02 0.02 0.03 0.04 0.04 0.05 0.06 0.07 0.07 0.07 0.07 0.07 0.07 0.06 0.06 0.06 0.06 0.07 0.08 0.09 0.11 0.10 0.09 0.07 0.07 0.07 0.07 0.07
0.01 0.01 0.02 0.01 0.01 0.01 0.01 0.00 0.01 0.02 0.01 0.02 0.02 0.02 0.01 0.02 0.01 0.01 0.02 0.04 0.06 0.07 0.06 0.07 0.07 0.06 0.05 0.05 0.05 0.04 0.05 0.05 0.06 0.06 0.07 0.09 0.09 0.08 0.07 0.06 0.05 0.05 0.05 0.06
0.01 0.01 0.02 0.02 0.01 0.01 0.01 0.01 0.01 0.01 0.02 0.02 0.02 0.03 0.02 0.02 0.02 0.02 0.02 0.03 0.05 0.06 0.05 0.05 0.04 0.02 0.02 0.02 0.02 0.03 0.03 0.04 0.04 0.05 0.06 0.06 0.07 0.06 0.05 0.05 0.05 0.05 0.04 0.05
0.01 0.01 0.02 0.02 0.02 0.01 0.01 0.01 0.00 0.02 0.03 0.02 0.02 0.03 0.03 0.03 0.03 0.02 0.02 0.03 0.03 0.04 0.04 0.02 0.02 0.02 0.02 0.01 0.01 0.02 0.03 0.03 0.04 0.05 0.05 0.05 0.05 0.05 0.05 0.05 0.04 0.04 0.04 0.04
0.01 0.01 0.01 0.01 0.02 0.01 0.01 0.01 0.02 0.03 0.02 0.02 0.02 0.02 0.03 0.03 0.02 0.02 0.02 0.02 0.02 0.02 0.02 0.02 0.01 0.02 0.02 0.01 0.01 0.02 0.02 0.03 0.04 0.04 0.04 0.05 0.05 0.05 0.04 0.04 0.03 0.03 0.03 0.03
0.01 0.01 0.01 0.01 0.01 0.01 0.02 0.02 0.02 0.02 0.02 0.02 0.02 0.02 0.02 0.03 0.03 0.02 0.02 0.02 0.02 0.02 0.02 0.02 0.01 0.02 0.02 0.02 0.01 0.02 0.03 0.03 0.03 0.04 0.04 0.05 0.05 0.05 0.04 0.03 0.03 0.02 0.02 0.02
0.00 0.00 0.01 0.01 0.01 0.01 0.01 0.01 0.01 0.01 0.02 0.02 0.02 0.02 0.02 0.03 0.02 0.02 0.02 0.02 0.02 0.02 0.03 0.02 0.01 0.01 0.03 0.03 0.03 0.03 0.03 0.04 0.04 0.04 0.04 0.04 0.04 0.04 0.03 0.02 0.02 0.02 0.01 0.02
0.00 0.00 0.01 0.01 0.00 0.00 0.01 0.01 0.01 0.01 0.01 0.01 0.01 0.01 0.02 0.02 0.02 0.02 0.02 0.02 0.02 0.02 0.02 0.02 0.02 0.02 0.03 0.04 0.04 0.04 0.05 0.04 0.04 0.04 0.04 0.04 0.03 0.02 0.02 0.01 0.01 0.01 0.01 0.02
0.01 0.01 0.01 0.01 0.00 0.01 0.00 0.00 0.01 0.01 0.01 0.01 0.01 0.01 0.01 0.02 0.02 0.02 0.02 0.02 0.02 0.02 0.02 0.02 0.02 0.03 0.04 0.04 0.05 0.05 0.05 0.04 0.03 0.03 0.03 0.03 0.02 0.01 0.01 0.01 0.01 0.01 0.01 0.01
MSLP
1014.48 1014.60 1014.59 1014.44 1014.19 1013.89 1013.56 1013.24 1012.92 1012.59 1012.22 1011.75 1011.17 1010.46 1009.63 1008.74 1007.88 1007.13 1006.58 1006.30 1006.35 1006.70 1007.35 1008.20 1009.16 1010.15 1011.09 1011.90 1012.58 1013.13 1013.56 1013.91 1014.22 1014.50 1014.74 1014.94 1015.04 1015.02 1014.83 1014.47 1013.95 1013.30 1012.58 1011.86
1014.33 1014.36 1014.26 1014.06 1013.81 1013.54 1013.30 1013.08 1012.88 1012.64 1012.31 1011.83 1011.17 1010.32 1009.31 1008.22 1007.16 1006.24 1005.57 1005.24 1005.27 1005.67 1006.38 1007.32 1008.38 1009.45 1010.46 1011.35 1012.09 1012.69 1013.19 1013.61 1013.99 1014.34 1014.65 1014.89 1015.02 1014.99 1014.78 1014.39 1013.83 1013.16 1012.43 1011.71
1014.10 1014.01 1013.82 1013.58 1013.32 1013.11 1012.96 1012.87 1012.79 1012.65 1012.37 1011.89 1011.16 1010.19 1009.03 1007.77 1006.55 1005.50 1004.74 1004.36 1004.40 1004.84 1005.61 1006.62 1007.75 1008.89 1009.94 1010.87 1011.66 1012.30 1012.85 1013.34 1013.79 1014.20 1014.56 1014.83 1014.98 1014.95 1014.73 1014.32 1013.75 1013.07 1012.34 1011.61
1013.91 1013.70 1013.41 1013.10 1012.85 1012.70 1012.65 1012.67 1012.71 1012.66 1012.44 1011.95 1011.17 1010.10 1008.81 1007.42 1006.08 1004.94 1004.13 1003.74 1003.80 1004.28 1005.11 1006.17 1007.34 1008.50 1009.57 1010.51 1011.31 1011.98 1012.55 1013.08 1013.57 1014.03 1014.43 1014.74 1014.90 1014.88 1014.66 1014.25 1013.68 1013.00 1012.28 1011.55
1013.91 1013.55 1013.15 1012.79 1012.53 1012.42 1012.45 1012.58 1012.71 1012.74 1012.54 1012.05 1011.21 1010.06 1008.67 1007.19 1005.77 1004.58 1003.76 1003.38 1003.47 1003.99 1004.86 1005.95 1007.14 1008.30 1009.35 1010.27 1011.04 1011.70 1012.28 1012.82 1013.33 1013.82 1014.25 1014.58 1014.76 1014.76 1014.55 1014.15 1013.60 1012.94 1012.22 1011.50
1014.16 1013.66 1013.14 1012.71 1012.44 1012.35 1012.44 1012.64 1012.83 1012.89 1012.70 1012.17 1011.28 1010.06 1008.60 1007.06 1005.61 1004.41 1003.60 1003.25 1003.39 1003.95 1004.85 1005.95 1007.12 1008.25 1009.26 1010.13 1010.85 1011.47 1012.02 1012.55 1013.07 1013.57 1014.01 1014.36 1014.57 1014.58 1014.40 1014.03 1013.50 1012.87 1012.17 1011.46
1014.69 1014.04 1013.42 1012.92 1012.62 1012.54 1012.65 1012.87 1013.07 1013.13 1012.90 1012.33 1011.37 1010.09 1008.58 1007.00 1005.54 1004.36 1003.59 1003.30 1003.49 1004.09 1005.00 1006.09 1007.23 1008.30 1009.25 1010.05 1010.71 1011.27 1011.78 1012.29 1012.79 1013.29 1013.75 1014.11 1014.34 1014.38 1014.23 1013.90 1013.41 1012.81 1012.14 1011.43
1015.42 1014.65 1013.93 1013.38 1013.05 1012.95 1013.05 1013.25 1013.42 1013.42 1013.13 1012.48 1011.45 1010.10 1008.55 1006.97 1005.53 1004.39 1003.68 1003.45 1003.68 1004.31 1005.22 1006.29 1007.38 1008.39 1009.26 1009.98 1010.58 1011.09 1011.56 1012.03 1012.53 1013.02 1013.48 1013.86 1014.11 1014.19 1014.08 1013.78 1013.33 1012.77 1012.12 1011.43
1016.22 1015.36 1014.59 1013.99 1013.63 1013.51 1013.57 1013.72 1013.82 1013.73 1013.34 1012.58 1011.47 1010.07 1008.50 1006.92 1005.52 1004.44 1003.79 1003.60 1003.87 1004.51 1005.42 1006.44 1007.48 1008.42 1009.22 1009.89 1010.43 1010.90 1011.34 1011.80 1012.29 1012.78 1013.25 1013.65 1013.92 1014.03 1013.96 1013.70 1013.30 1012.77 1012.15 1011.46
1016.95 1016.04 1015.24 1014.63 1014.26 1014.10 1014.11 1014.18 1014.17 1013.96 1013.45 1012.59 1011.40 1009.95 1008.36 1006.81 1005.46 1004.44 1003.84 1003.70 1003.99 1004.63 1005.50 1006.47 1007.45 1008.33 1009.08 1009.70 1010.22 1010.68 1011.13 1011.59 1012.09 1012.60 1013.08 1013.50 1013.79 1013.93 1013.89 1013.67 1013.31 1012.81 1012.22 1011.55
1017.44 1016.54 1015.76 1015.17 1014.79 1014.61 1014.56 1014.52 1014.39 1014.04 1013.40 1012.43 1011.17 1009.68 1008.11 1006.60 1005.30 1004.34 1003.79 1003.68 1003.97 1004.58 1005.40 1006.32 1007.23 1008.06 1008.79 1009.40 1009.93 1010.42 1010.90 1011.40 1011.93 1012.47 1012.98 1013.41 1013.73 1013.89 1013.87 1013.69 1013.36 1012.90 1012.33 1011.69
1017.61 1016.77 1016.05 1015.50 1015.14 1014.92 1014.80 1014.65 1014.38 1013.90 1013.14 1012.07 1010.75 1009.26 1007.71 1006.26 1005.03 1004.13 1003.62 1003.52 1003.79 1004.34 1005.10 1005.95 1006.81 1007.61 1008.33 1008.97 1009.55 1010.10 1010.65 1011.22 1011.81 1012.39 1012.92 1013.37 1013.70 1013.88 1013.88 1013.73 1013.43 1013.00 1012.47 1011.86
1017.46 1016.71 1016.07 1015.57 1015.22 1014.97 1014.76 1014.51 1014.11 1013.49 1012.62 1011.49 1010.14 1008.67 1007.18 1005.80 1004.65 1003.82 1003.34 1003.23 1003.46 1003.95 1004.63 1005.40 1006.21 1006.99 1007.72 1008.42 1009.07 1009.72 1010.37 1011.03 1011.69 1012.32 1012.89 1013.35 1013.69 1013.88 1013.90 1013.76 1013.49 1013.11 1012.62 1012.05
1017.05 1016.38 1015.82 1015.37 1015.02 1014.73 1014.43 1014.06 1013.53 1012.80 1011.85 1010.68 1009.35 1007.94 1006.53 1005.26 1004.20 1003.43 1002.98 1002.86 1003.03 1003.44 1004.03 1004.73 1005.48 1006.25 1007.01 1007.77 1008.53 1009.29 1010.05 1010.82 1011.55 1012.24 1012.84 1013.33 1013.67 1013.86 1013.89 1013.78 1013.54 1013.20 1012.76 1012.25
1016.46 1015.87 1015.36 1014.93 1014.56 1014.20 1013.81 1013.32 1012.69 1011.87 1010.88 1009.71 1008.44 1007.12 1005.84 1004.69 1003.74 1003.04 1002.62 1002.47 1002.58 1002.90 1003.39 1004.01 1004.71 1005.46 1006.26 1007.09 1007.95 1008.83 1009.71 1010.58 1011.40 1012.14 1012.77 1013.26 1013.61 1013.80 1013.84 1013.75 1013.55 1013.27 1012.90 1012.46
1015.81 1015.26 1014.76 1014.30 1013.88 1013.44 1012.94 1012.35 1011.63 1010.77 1009.77 1008.66 1007.48 1006.30 1005.17 1004.17 1003.34 1002.73 1002.33 1002.17 1002.21 1002.44 1002.83 1003.35 1003.99 1004.73 1005.55 1006.45 1007.40 1008.38 1009.37 1010.33 1011.22 1012.01 1012.66 1013.16 1013.51 1013.70 1013.75 1013.69 1013.54 1013.32 1013.03 1012.68
1015.16 1014.58 1014.04 1013.53 1013.02 1012.48 1011.88 1011.21 1010.44 1009.57 1008.62 1007.60 1006.57 1005.56 1004.62 1003.79 1003.10 1002.57 1002.21 1002.02 1002.00 1002.13 1002.42 1002.85 1003.42 1004.13 1004.96 1005.90 1006.91 1007.98 1009.06 1010.09 1011.03 1011.85 1012.52 1013.02 1013.37 1013.57 1013.64 1013.62 1013.52 1013.37 1013.17 1012.91
1014.51 1013.86 1013.24 1012.63 1012.01 1011.38 1010.70 1009.97 1009.19 1008.36 1007.50 1006.63 1005.78 1004.97 1004.23 1003.59 1003.05 1002.61 1002.30 1002.10 1002.01 1002.06 1002.25 1002.58 1003.08 1003.74 1004.55 1005.50 1006.56 1007.67 1008.79 1009.87 1010.84 1011.68 1012.36 1012.87 1013.22 1013.43 1013.53 1013.55 1013.52 1013.44 1013.31 1013.14
1013.82 1013.07 1012.33 1011.61 1010.90 1010.18 1009.45 1008.70 1007.96 1007.21 1006.49 1005.79 1005.15 1004.56 1004.04 1003.58 1003.19 1002.86 1002.59 1002.38 1002.26 1002.23 1002.32 1002.57 1002.99 1003.58 1004.36 1005.29 1006.35 1007.47 1008.61 1009.69 1010.68 1011.52 1012.20 1012.71 1013.08 1013.31 1013.44 1013.51 1013.54 1013.53 1013.48 1013.39
1013.02 1012.14 1011.30 1010.48 1009.68 1008.91 1008.17 1007.45 1006.78 1006.15 1005.59 1005.09 1004.66 1004.30 1003.98 1003.72 1003.47 1003.24 1003.02 1002.83 1002.67 1002.59 1002.61 1002.78 1003.12 1003.65 1004.37 1005.26 1006.28 1007.38 1008.50 1009.57 1010.54 1011.38 1012.05 1012.57 1012.95 1013.21 1013.39 1013.51 1013.59 1013.64 1013.66 1013.63
1012.03 1011.06 1010.13 1009.24 1008.41 1007.62 1006.90 1006.25 1005.67 1005.19 1004.79 1004.49 1004.26 1004.10 1003.99 1003.89 1003.78 1003.65 1003.50 1003.33 1003.16 1003.05 1003.02 1003.13 1003.41 1003.88 1004.54 1005.37 1006.34 1007.39 1008.46 1009.50 1010.44 1011.25 1011.92 1012.45 1012.85 1013.14 1013.36 1013.53 1013.67 1013.77 1013.84 1013.85
1010.85 1009.83 1008.86 1007.95 1007.12 1006.36 1005.69 1005.12 1004.66 1004.31 1004.07 1003.93 1003.88 1003.89 1003.93 1003.98 1003.99 1003.96 1003.88 1003.75 1003.62 1003.51 1003.47 1003.55 1003.79 1004.21 1004.81 1005.58 1006.49 1007.47 1008.48 1009.46 1010.35 1011.14 1011.79 1012.33 1012.75 1013.08 1013.34 1013.56 1013.74 1013.89 1013.99 1014.02
1009.53 1008.52 1007.57 1006.70 1005.90 1005.20 1004.60 1004.12 1003.75 1003.51 1003.38 1003.36 1003.43 1003.57 1003.73 1003.88 1003.99 1004.05 1004.05 1004.00 1003.92 1003.85 1003.84 1003.94 1004.17 1004.56 1005.12 1005.83 1006.66 1007.58 1008.51 1009.42 1010.27 1011.02 1011.66 1012.19 1012.64 1013.00 1013.30 1013.56 1013.79 1013.96 1014.08 1014.13
1008.19 1007.26 1006.39 1005.59 1004.87 1004.24 1003.71 1003.29 1002.98 1002.79 1002.73 1002.77 1002.89 1003.09 1003.31 1003.54 1003.73 1003.88 1003.97 1004.00 1004.01 1004.02 1004.08 1004.22 1004.47 1004.86 1005.40 1006.07 1006.84 1007.68 1008.54 1009.38 1010.17 1010.88 1011.50 1012.03 1012.49 1012.88 1013.22 1013.52 1013.77 1013.97 1014.11 1014.16
1007.01 1006.21 1005.47 1004.77 1004.14 1003.58 1003.09 1002.69 1002.40 1002.21 1002.13 1002.16 1002.28 1002.47 1002.71 1002.98 1003.23 1003.44 1003.62 1003.77 1003.88 1004.00 1004.15 1004.36 1004.67 1005.09 1005.62 1006.25 1006.97 1007.74 1008.53 1009.31 1010.04 1010.70 1011.30 1011.83 1012.30 1012.71 1013.08 1013.40 1013.68 1013.90 1014.05 1014.11
1006.16 1005.54 1004.94 1004.37 1003.82 1003.30 1002.83 1002.41 1002.07 1001.81 1001.66 1001.62 1001.67 1001.81 1002.03 1002.29 1002.57 1002.85 1003.11 1003.36 1003.59 1003.83 1004.09 1004.39 1004.77 1005.22 1005.76 1006.38 1007.05 1007.77 1008.49 1009.20 1009.87 1010.50 1011.07 1011.59 1012.06 1012.48 1012.86 1013.21 1013.51 1013.74 1013.91 1013.98
Thickness
5553 5544 5540 5543 5545 5549 5549 5547 5546 5554 5561 5560 5559 5566 5574 5576 5575 5576 5577 5579 5581 5584 5588 5589 5591 5593 5595 5596 5597 5599 5600 5601 5602 5603 5603 5603 5605 5606 5607 5608 5609 5609 5610 5610
5539 5536 5544 5546 5547 5544 5542 5539 5539 5546 5554 5555 5553 5558 5567 5570 5570 5571 5571 5573 5574 5575 5577 5580 5581 5582 5584 5585 5587 5589 5590 5592 5594 5594 5595 5595 5596 5597 5598 5599 5600 5600 5601 5601
5535 5537 5544 5543 5540 5539 5536 5533 5534 5538 5542 5545 5542 5549 5559 5564 5564 5565 5565 5566 5567 5568 5569 5570 5570 5572 5573 5574 5576 5579 5581 5582 5584 5585 5585 5586 5585 5586 5587 5588 5590 5592 5592 5592
5529 5534 5538 5536 5533 5533 5529 5535 5535 5535 5527 5523 5530 5527 5546 5550 5551 5554 5554 5554 5555 5557 5559 5560 5560 5562 5564 5566 5567 5569 5571 5572 5573 5575 5575 5576 5576 5577 5579 5580 5581 5582 5582 5582
5523 5528 5529 5529 5529 5530 5526 5530 5528 5527 5520 5513 5517 5514 5533 5538 5541 5545 5544 5544 5545 5547 5549 5550 5552 5554 5556 5557 5558 5559 5562 5563 5564 5565 5566 5566 5566 5567 5569 5569 5570 5571 5572 5573
5520 5524 5524 5524 5526 5526 5524 5520 5516 5507 5501 5504 5513 5507 5520 5525 5533 5537 5538 5536 5536 5537 5538 5539 5540 5542 5544 5546 5547 5549 5551 5553 5554 5554 5555 5557 5557 5557 5558 5559 5560 5561 5561 5562
5510 5516 5519 5520 5518 5517 5514 5501 5492 5491 5483 5495 5508 5508 5516 5526 5527 5527 5527 5526 5524 5524 5525 5527 5528 5530 5531 5533 5534 5537 5539 5541 5542 5543 5544 5546 5547 5547 5548 5549 5550 5550 5551 5551
5498 5502 5510 5511 5510 5506 5504 5498 5491 5490 5483 5490 5501 5503 5516 5521 5520 5519 5517 5516 5516 5514 5514 5516 5517 5518 5520 5522 5523 5525 5527 5529 5530 5532 5533 5534 5535 5536 5538 5539 5539 5540 5540 5542
5488 5495 5504 5505 5506 5504 5499 5488 5490 5479 5473 5476 5487 5495 5508 5514 5513 5511 5509 5507 5505 5504 5504 5505 5506 5507 5509 5511 5512 5513 5515 5517 5518 5520 5521 5521 5523 5525 5527 5527 5528 5528 5529 5530
5484 5479 5491 5496 5500 5498 5495 5488 5477 5474 5475 5479 5485 5488 5497 5502 5502 5501 5498 5496 5495 5495 5494 5494 5495 5497 5499 5500 5501 5503 5504 5505 5506 5507 5508 5511 5513 5515 5516 5517 5518 5518 5518 5518
5479 5471 5476 5482 5483 5484 5484 5480 5473 5465 5464 5471 5472 5489 5498 5494 5494 5490 5488 5487 5485 5484 5483 5484 5485 5487 5488 5489 5490 5492 5493 5494 5494 5496 5497 5499 5502 5504 5505 5506 5507 5507 5508 5508
5470 5460 5459 5469 5478 5479 5477 5473 5464 5464 5459 5455 5459 5479 5494 5487 5485 5482 5479 5478 5477 5475 5474 5474 5475 5476 5477 5478 5480 5481 5482 5483 5484 5485 5486 5489 5491 5493 5493 5495 5495 5496 5496 5497
5465 5455 5457 5467 5468 5467 5465 5464 5458 5451 5445 5440 5447 5475 5485 5477 5476 5472 5469 5467 5467 5465 5465 5465 5465 5465 5466 5467 5469 5471 5472 5472 5473 5473 5474 5477 5479 5480 5482 5482 5483 5484 5484 5484
5462 5447 5454 5464 5466 5457 5454 5455 5450 5445 5439 5440 5449 5465 5475 5470 5465 5462 5460 5458 5457 5457 5457 5456 5455 5455 5456 5457 5458 5460 5461 5462 5462 5462 5463 5464 5466 5468 5470 5471 5471 5471 5472 5473
5450 5442 5438 5445 5450 5448 5449 5450 5445 5441 5441 5442 5453 5454 5462 5459 5456 5453 5451 5450 5450 5450 5449 5448 5447 5446 5446 5447 5448 5450 5451 5451 5451 5451 5452 5453 5454 5457 5458 5458 5459 5459 5460 5461
5434 5433 5431 5438 5448 5444 5444 5446 5443 5442 5440 5439 5443 5450 5454 5450 5447 5444 5442 5441 5441 5441 5441 5440 5439 5438 5438 5439 5439 5440 5440 5440 5441 5441 5442 5443 5444 5445 5446 5447 5447 5448 5449 5449
5423 5424 5428 5432 5430 5437 5442 5446 5442 5439 5437 5436 5439 5444 5443 5442 5441 5437 5435 5434 5433 5434 5434 5432 5431 5430 5430 5430 5430 5430 5431 5431 5432 5432 5432 5432 5433 5434 5434 5435 5436 5436 5438 5439
5417 5415 5412 5415 5421 5437 5452 5442 5438 5435 5433 5428 5430 5433 5433 5433 5431 5429 5427 5425 5425 5426 5426 5425 5423 5422 5422 5421 5421 5421 5421 5421 5422 5422 5421 5421 5422 5423 5423 5425 5425 5426 5427 5429
5416 5413 5406 5404 5408 5421 5441 5437 5429 5426 5430 5426 5424 5426 5426 5424 5423 5422 5422 5419 5418 5418 5417 5416 5415 5415 5414 5413 5413 5413 5413 5412 5412 5412 5411 5411 5412 5413 5414 5414 5414 5415 5417 5418
5407 5404 5400 5395 5407 5423 5442 5432 5426 5424 5425 5425 5418 5416 5414 5415 5412 5415 5415 5411 5410 5409 5408 5408 5408 5407 5406 5405 5405 5405 5404 5404 5403 5402 5402 5402 5402 5403 5403 5404 5404 5405 5406 5407
5399 5394 5393 5391 5394 5412 5424 5419 5420 5419 5422 5418 5411 5408 5405 5404 5403 5404 5403 5401 5400 5400 5400 5400 5399 5398 5397 5396 5396 5396 5395 5394 5394 5393 5393 5393 5393 5394 5395 5395 5395 5396 5397 5398
5400 5392 5386 5385 5390 5413 5415 5410 5409 5411 5409 5406 5403 5400 5398 5396 5396 5395 5394 5392 5392 5392 5392 5391 5389 5388 5387 5387 5387 5387 5386 5385 5384 5384 5384 5384 5384 5385 5386 5386 5386 5387 5387 5388
5398 5401 5397 5399 5411 5411 5403 5403 5402 5400 5398 5397 5394 5392 5391 5390 5390 5389 5387 5386 5385 5383 5382 5381 5379 5379 5378 5377 5377 5377 5377 5376 5376 5376 5376 5376 5376 5377 5377 5377 5378 5378 5379 5379
5397 5394 5391 5389 5399 5400 5398 5395 5393 5391 5390 5389 5387 5385 5384 5383 5383 5382 5380 5378 5377 5376 5374 5372 5371 5370 5369 5368 5368 5368 5368 5368 5367 5366 5367 5367 5368 5368 5369 5369 5370 5370 5370 5370
5396 5388 5385 5385 5391 5392 5397 5392 5389 5387 5384 5382 5380 5379 5377 5376 5376 5374 5373 5371 5370 5368 5366 5364 5362 5362 5360 5360 5360 5360 5360 5360 5359 5358 5359 5359 5360 5360 5360 5361 5361 5361 5361 5362
5385 5384 5384 5392 5391 5384 5387 5386 5383 5380 5378 5376 5374 5373 5372 5370 5369 5368 5366 5365 5363 5361 5358 5356 5354 5354 5353 5352 5352 5352 5352 5352 5351 5351 5351 5352 5352 5352 5352 5352 5353 5353 5354 5356